FDX122A KMEM-KORL

Flight info

Callsign FDX122A
Flight time N/A
Altitude 37000
Route BBKNG7 KERMI VUZ PZD MJKAL JAFAR3
Aircraft A332/H-SDE3GHIJ2J3J5M1RVWXY/LB2D1

Departure

Time 2026-05-05 00:21
Airport Memphis International Airport (KMEM)

Arrival

Time N/A
Airport Orlando Executive Airport (KORL)
Time Latitude Longitude Altitude Speed Heading
2026-05-04 23:57 35.05509 -89.95856 300 ft 0 kts
2026-05-05 00:09 35.05493 -89.95857 302 ft 4 kts
2026-05-05 00:10 35.05468 -89.95861 299 ft 3 kts 12°
2026-05-05 00:10 35.05447 -89.95869 300 ft 3 kts 30°
2026-05-05 00:10 35.05435 -89.95879 299 ft 2 kts 53°
2026-05-05 00:10 35.05428 -89.95893 300 ft 2 kts 75°
2026-05-05 00:11 35.05426 -89.95907 298 ft 2 kts 85°
2026-05-05 00:11 35.05425 -89.95920 297 ft 2 kts 90°
2026-05-05 00:11 35.05426 -89.95934 297 ft 2 kts 92°
2026-05-05 00:11 35.05426 -89.95940 295 ft 0 kts 92°
2026-05-05 00:15 35.05426 -89.95938 295 ft 1 kts 91°
2026-05-05 00:15 35.05425 -89.95906 296 ft 6 kts 92°
2026-05-05 00:16 35.05428 -89.95840 298 ft 10 kts 82°
2026-05-05 00:16 35.05422 -89.95742 299 ft 14 kts 97°
2026-05-05 00:16 35.05417 -89.95613 302 ft 16 kts 92°
2026-05-05 00:16 35.05460 -89.95548 303 ft 11 kts 15°
2026-05-05 00:17 35.05546 -89.95538 306 ft 14 kts
2026-05-05 00:17 35.05612 -89.95593 306 ft 13 kts 281°
2026-05-05 00:17 35.05617 -89.95719 308 ft 17 kts 271°
2026-05-05 00:17 35.05622 -89.95881 308 ft 21 kts 272°
2026-05-05 00:18 35.05627 -89.96079 301 ft 26 kts 272°
2026-05-05 00:18 35.05635 -89.96318 299 ft 29 kts 270°
2026-05-05 00:18 35.05640 -89.96571 288 ft 31 kts 272°
2026-05-05 00:18 35.05651 -89.96838 282 ft 32 kts 271°
2026-05-05 00:19 35.05655 -89.97077 281 ft 23 kts 272°
2026-05-05 00:19 35.05646 -89.97219 281 ft 15 kts 243°
2026-05-05 00:19 35.05589 -89.97321 281 ft 14 kts 234°
2026-05-05 00:19 35.05535 -89.97413 284 ft 12 kts 234°
2026-05-05 00:20 35.05488 -89.97498 288 ft 12 kts 235°
2026-05-05 00:20 35.05437 -89.97580 285 ft 12 kts 232°
2026-05-05 00:20 35.05377 -89.97615 287 ft 8 kts 181°
2026-05-05 00:20 35.05369 -89.97615 287 ft 0 kts 178°
2026-05-05 00:21 35.05300 -89.97613 288 ft 38 kts 179°
2026-05-05 00:21 35.04749 -89.97604 298 ft 118 kts 178°
2026-05-05 00:21 35.03699 -89.97592 374 ft 181 kts 180°
2026-05-05 00:21 35.02354 -89.97499 1003 ft 201 kts 176°
2026-05-05 00:22 35.00903 -89.97292 1723 ft 214 kts 173°
2026-05-05 00:22 34.99433 -89.97102 2350 ft 215 kts 181°
2026-05-05 00:22 34.97895 -89.96927 2406 ft 233 kts 168°
2026-05-05 00:22 34.96312 -89.96230 2509 ft 255 kts 160°
2026-05-05 00:23 34.94745 -89.95290 3434 ft 247 kts 151°
2026-05-05 00:23 34.93551 -89.93724 4103 ft 264 kts 124°
2026-05-05 00:23 34.92935 -89.91566 4746 ft 277 kts 102°
2026-05-05 00:23 34.92827 -89.89203 5381 ft 283 kts 95°
2026-05-05 00:24 34.92717 -89.86786 6002 ft 287 kts 97°
2026-05-05 00:24 34.92527 -89.84344 6606 ft 293 kts 96°
2026-05-05 00:24 34.92445 -89.81862 7283 ft 294 kts 92°
2026-05-05 00:24 34.92407 -89.79355 7873 ft 298 kts 94°
2026-05-05 00:25 34.92237 -89.76819 8470 ft 301 kts 97°
2026-05-05 00:25 34.92049 -89.74269 9109 ft 305 kts 94°
2026-05-05 00:25 34.91984 -89.71678 9753 ft 307 kts 92°
2026-05-05 00:25 34.91905 -89.69056 10268 ft 311 kts 95°
2026-05-05 00:26 34.91707 -89.66421 10788 ft 316 kts 96°
2026-05-05 00:26 34.91570 -89.63671 10947 ft 336 kts 89°
2026-05-05 00:26 34.91691 -89.60742 10994 ft 357 kts 87°
2026-05-05 00:26 34.91695 -89.57647 11267 ft 369 kts 93°
2026-05-05 00:27 34.91550 -89.54542 11973 ft 367 kts 92°
2026-05-05 00:27 34.91551 -89.51408 12475 ft 373 kts 87°
2026-05-05 00:27 34.91673 -89.48242 13021 ft 376 kts 88°
2026-05-05 00:27 34.91654 -89.45043 13562 ft 380 kts 92°
2026-05-05 00:28 34.91533 -89.41817 14060 ft 382 kts 92°
2026-05-05 00:28 34.91009 -89.38636 14474 ft 386 kts 113°
2026-05-05 00:28 34.89656 -89.35829 15000 ft 385 kts 127°
2026-05-05 00:28 34.88058 -89.33244 15435 ft 389 kts 127°
2026-05-05 00:29 34.86545 -89.30489 15937 ft 393 kts 121°
2026-05-05 00:29 34.85253 -89.27491 16404 ft 396 kts 116°
2026-05-05 00:29 34.83941 -89.24527 16850 ft 400 kts 121°
2026-05-05 00:29 34.82449 -89.21716 17335 ft 402 kts 124°
2026-05-05 00:30 34.80959 -89.18819 17817 ft 405 kts 120°
2026-05-05 00:30 34.79625 -89.15785 18272 ft 409 kts 117°
2026-05-05 00:30 34.78236 -89.12749 18657 ft 412 kts 121°
2026-05-05 00:30 34.76693 -89.09807 19098 ft 414 kts 123°
2026-05-05 00:31 34.75289 -89.07042 19493 ft 417 kts 120°
2026-05-05 00:31 34.73882 -89.03941 19912 ft 420 kts 118°
2026-05-05 00:31 34.72435 -89.00842 20340 ft 423 kts 121°
2026-05-05 00:31 34.70878 -88.97793 20753 ft 426 kts 122°
2026-05-05 00:32 34.69339 -88.94700 21177 ft 429 kts 120°
2026-05-05 00:32 34.67875 -88.91531 21598 ft 432 kts 119°
2026-05-05 00:32 34.66362 -88.88361 21992 ft 435 kts 121°
2026-05-05 00:32 34.64763 -88.85228 22443 ft 438 kts 122°
2026-05-05 00:33 34.63189 -88.82043 22868 ft 441 kts 120°
2026-05-05 00:33 34.61671 -88.78785 23253 ft 445 kts 120°
2026-05-05 00:33 34.60103 -88.75541 23625 ft 447 kts 122°
2026-05-05 00:33 34.58461 -88.72317 23937 ft 451 kts 122°
2026-05-05 00:34 34.56848 -88.69040 24229 ft 454 kts 120°
2026-05-05 00:34 34.55276 -88.65699 24520 ft 458 kts 120°
2026-05-05 00:34 34.53649 -88.62365 24821 ft 461 kts 122°
2026-05-05 00:34 34.51959 -88.59048 25114 ft 464 kts 122°
2026-05-05 00:35 34.50303 -88.55677 25410 ft 467 kts 120°
2026-05-05 00:35 34.48681 -88.52253 25696 ft 470 kts 120°
2026-05-05 00:35 34.47000 -88.48839 25982 ft 473 kts 121°
2026-05-05 00:35 34.45264 -88.45433 26261 ft 477 kts 121°
2026-05-05 00:36 34.43563 -88.41972 26548 ft 480 kts 120°
2026-05-05 00:36 34.41890 -88.38461 26822 ft 483 kts 120°
2026-05-05 00:36 34.40154 -88.34965 27109 ft 486 kts 121°
2026-05-05 00:36 34.38373 -88.31475 27400 ft 489 kts 121°
2026-05-05 00:37 34.36629 -88.27929 27684 ft 492 kts 120°
2026-05-05 00:37 34.34906 -88.24338 27959 ft 495 kts 120°
2026-05-05 00:37 34.33122 -88.20765 28240 ft 498 kts 121°
2026-05-05 00:37 34.31294 -88.17191 28513 ft 501 kts 121°
2026-05-05 00:38 34.29508 -88.13567 28800 ft 503 kts 120°
2026-05-05 00:38 34.27739 -88.09906 29054 ft 506 kts 120°
2026-05-05 00:38 34.25907 -88.06257 29347 ft 509 kts 121°
2026-05-05 00:38 34.24042 -88.02611 29612 ft 511 kts 121°
2026-05-05 00:39 34.22213 -87.98916 29876 ft 514 kts 120°
2026-05-05 00:39 34.20397 -87.95182 30124 ft 516 kts 120°
2026-05-05 00:39 34.18524 -87.91465 30311 ft 520 kts 121°
2026-05-05 00:39 34.16638 -87.87792 30508 ft 523 kts 121°
2026-05-05 00:40 34.14762 -87.84017 30732 ft 526 kts 120°
2026-05-05 00:40 34.12899 -87.80208 30898 ft 529 kts 120°
2026-05-05 00:40 34.10976 -87.76404 31087 ft 532 kts 121°
2026-05-05 00:40 34.09017 -87.72600 31274 ft 535 kts 121°
2026-05-05 00:41 34.07088 -87.68741 31465 ft 538 kts 120°
2026-05-05 00:41 34.05178 -87.64853 31670 ft 541 kts 120°
2026-05-05 00:41 34.03856 -87.62229 31785 ft 543 kts 121°
2026-05-05 00:41 34.01853 -87.58354 31984 ft 546 kts 121°
2026-05-05 00:42 33.99865 -87.54447 32176 ft 548 kts 120°
2026-05-05 00:42 33.97937 -87.50538 32340 ft 551 kts 120°
2026-05-05 00:42 33.95950 -87.46580 32516 ft 554 kts 121°
2026-05-05 00:42 33.93904 -87.42641 32742 ft 555 kts 121°
2026-05-05 00:43 33.91879 -87.38682 32986 ft 556 kts 120°
2026-05-05 00:43 33.89897 -87.34682 33194 ft 557 kts 120°
2026-05-05 00:43 33.87884 -87.30689 33410 ft 559 kts 121°
2026-05-05 00:43 33.85816 -87.26725 33617 ft 560 kts 121°
2026-05-05 00:44 33.83766 -87.22738 33843 ft 561 kts 120°
2026-05-05 00:44 33.81760 -87.18703 34037 ft 563 kts 119°
2026-05-05 00:44 33.79723 -87.14679 34239 ft 563 kts 121°
2026-05-05 00:44 33.77632 -87.10693 34479 ft 563 kts 121°
2026-05-05 00:45 33.75568 -87.06701 34709 ft 563 kts 120°
2026-05-05 00:45 33.73550 -87.02659 34947 ft 563 kts 119°
2026-05-05 00:45 33.71515 -86.98642 35197 ft 564 kts 120°
2026-05-05 00:45 33.69416 -86.94663 35430 ft 564 kts 121°
2026-05-05 00:46 33.67321 -86.90691 35661 ft 563 kts 122°
2026-05-05 00:46 33.64906 -86.86986 35832 ft 564 kts 131°
2026-05-05 00:46 33.62243 -86.83534 36073 ft 563 kts 135°
2026-05-05 00:46 33.59555 -86.80119 36332 ft 563 kts 133°
2026-05-05 00:47 33.56986 -86.76574 36562 ft 564 kts 130°
2026-05-05 00:47 33.54441 -86.72986 36773 ft 564 kts 131°
2026-05-05 00:47 33.51780 -86.69540 36999 ft 564 kts 134°
2026-05-05 00:48 33.46449 -86.62548 37018 ft 570 kts 130°
2026-05-05 00:48 33.41228 -86.55456 37015 ft 568 kts 135°
2026-05-05 00:49 33.35865 -86.48521 37023 ft 568 kts 130°
2026-05-05 00:49 33.30667 -86.41414 37019 ft 568 kts 135°
2026-05-05 00:50 33.25265 -86.34527 37033 ft 568 kts 130°